Dewpoint
10 9 9 9 8 8 8 8 9 9 9 9 9 9 9 9 10 9 9 9 7 7 6 2 -6 -13 -19 -8 -5 -1 -0 -0 3 -5 -5 -5 -5 -5 -4 -5 -5 -5 -7 -8 -12 -14 -13
10 10 10 10 9 9 9 10 10 9 10 9 9 9 9 9 10 9 9 9 7 4 2 -3 -7 -13 -14 -1 -2 -0 -1 -1 -0 -3 -4 -4 -5 -5 -4 -4 -4 -6 -7 -7 -6 -7 -12
9 9 9 10 10 10 10 10 9 9 10 10 10 10 10 10 10 9 9 8 4 1 -0 -5 -8 -6 -11 -21 -9 -2 -1 -1 -0 -2 -3 -3 -5 -5 -5 -3 -4 -4 -5 -6 -6 -6 -7
8 7 8 8 10 10 10 10 10 9 9 10 10 10 10 10 10 9 8 5 3 0 -3 -9 -8 -6 -7 -15 -4 -5 -1 -3 1 0 -3 -4 -4 -5 -4 -4 -5 -3 -3 -2 -5 -5 -5
9 9 9 9 10 10 10 8 7 8 8 9 9 9 9 9 8 6 3 2 1 -5 -9 -10 -9 3 2 0 -0 -1 -1 -2 -2 -1 -4 -4 -5 -5 -4 -3 -3 -3 -0 -2 -3 -6 -9
7 7 7 7 6 6 7 6 3 3 4 5 5 4 6 4 5 4 2 0 -5 -9 -5 1 1 2 -5 -9 -3 -1 -1 -3 -3 -3 -4 -4 -4 -4 -2 -2 1 -1 -3 -5 -6 -8 -9
3 2 4 3 3 4 4 3 5 2 2 3 4 4 5 2 -1 -3 -2 -6 -2 4 6 0 2 -6 -2 -2 -4 -4 -7 -4 -4 -5 -4 -5 -2 -0 -2 -2 -2 -2 -4 -3 -4 -5 -9
4 3 1 2 2 2 2 1 2 2 2 2 1 2 3 -0 -3 -4 -3 -4 -1 2 3 1 1 4 -1 -2 -2 -2 -4 -8 -7 -3 -5 -4 -2 -4 -4 -4 -1 -1 -1 -1 -2 -3 -3
3 3 3 2 3 2 2 2 2 1 1 1 2 2 1 -2 -3 -7 -6 -7 0 3 1 -2 -10 -9 -5 -4 -5 -5 -4 -8 -8 -6 -6 -5 -5 -6 -4 -2 -1 -0 -0 -0 -1 -4 -4
2 2 2 3 2 1 0 2 2 1 2 3 3 2 1 -2 -4 1 -5 -5 3 2 3 -2 -7 -9 -9 -8 -5 -6 -7 -6 -5 -4 -5 -6 -7 -7 -4 -3 -3 -1 -2 -4 -3 -1 1
2 2 2 2 1 2 0 -1 2 2 2 3 3 2 0 -3 1 2 3 3 3 -3 1 -6 -5 -4 -6 -6 -4 -4 -5 -6 -4 -5 -6 -2 -4 -4 -2 -3 -5 -4 -4 -3 -3 -1 -1
2 3 3 2 2 1 1 1 1 2 1 2 3 3 0 -3 2 3 3 2 -2 5 5 -4 -3 -2 -1 -4 -4 -3 -3 -4 -5 -6 -5 -5 -7 -7 -5 -5 -4 -5 -3 -3 -3 -2 2
1 2 2 3 2 1 0 0 0 1 1 1 2 2 -1 -4 3 2 3 -0 5 5 -7 -8 -1 -4 -1 0 -2 -3 -2 -2 -3 -2 -2 -5 -6 -8 -8 -5 -6 -5 -3 2 3 2 3
-1 0 1 3 4 2 1 1 1 1 1 1 1 1 -0 -1 3 2 0 4 5 -3 -9 -12 -7 -3 -0 -2 -1 -4 -3 -3 -4 -5 -5 -6 -4 -6 -7 -5 -3 -3 -3 2 3 2 -1
-3 -2 -1 0 1 3 3 1 1 1 1 1 1 -0 1 -2 2 1 3 4 -1 -5 -10 -9 -10 -1 -1 -3 -6 -3 -6 -7 -9 -7 -5 -6 -7 -9 -8 -9 -8 -8 -5 -7 -4 -4 -1
-5 -4 -4 -2 -1 0 2 3 2 1 0 1 0 -0 0 -1 1 0 4 -1 -3 -9 -11 -8 -5 -3 -1 -3 -7 -11 -9 -11 -11 -13 -11 -9 -5 -9 -9 -9 -9 -8 -8 -4 -3 0 -0
-8 -14 -13 -8 -5 -3 0 2 2 2 2 1 0 0 -1 -0 0 2 1 -0 -6 -7 -11 -6 -5 -4 -6 -5 -6 -5 -7 -12 -13 -11 -11 -9 -6 -6 -10 -7 -7 -7 -5 -5 -5 -1 -1
-10 -7 -11 -13 -13 -7 -3 0 2 1 2 1 -0 1 1 1 2 1 0 -3 -7 -7 -10 -7 -8 -6 -6 -10 -10 -11 -8 -11 -14 -11 -9 -7 -6 -4 -6 -8 -10 -9 -7 -7 -1 -2 -0
-8 -11 -9 -12 -13 -15 -10 -2 1 1 1 1 0 1 2 2 1 1 -2 -3 -5 -5 -8 -9 -9 -11 -10 -8 -8 -10 -9 -12 -11 -10 -6 -6 -4 0 -3 -7 -9 -9 -8 -9 -6 -4 -2
-6 -11 -11 -6 -7 -10 -15 -8 -1 1 0 0 0 1 2 2 1 -1 -0 -2 -2 -6 -6 -7 -9 -9 -8 -9 -9 -9 -8 -11 -10 -7 -9 -8 -5 -2 0 -1 -5 -5 -7 -8 -8 -3 -2
-7 -10 -11 -7 -4 -5 -11 -14 -1 2 1 0 0 1 0 2 1 0 -0 -2 -2 -3 -6 -8 -6 -5 -7 -6 -6 -7 -7 -7 -9 -7 -7 -6 -3 -4 -5 -7 -5 -3 -4 -5 -4 -4 -3
-6 -7 -13 -10 -6 -5 -9 -15 -2 1 2 -0 0 1 -2 -3 -2 0 0 -1 -3 -4 -4 -4 -4 -5 -7 -3 -5 -6 -4 -4 -5 -3 -5 -3 -1 -1 -1 -2 -2 -2 -3 -4 -5 -5 -5
-5 -6 -9 -9 -6 -5 -7 -15 -4 1 -0 -1 0 -0 -0 -3 -1 -0 -1 -1 -3 -3 -1 -4 -5 -4 -4 -4 -2 -1 -2 -2 -2 -1 -0 -1 0 1 1 -1 -0 1 -1 -1 -2 -3 -3
-11 -9 -8 -10 -7 -6 -7 -11 -9 0 1 0 0 1 -0 0 -1 -1 -3 -2 -2 -4 -1 -3 -5 -6 -3 -2 -3 -3 -3 -3 -3 -2 -3 -0 -0 0 1 0 2 -1 -2 -4 -2 -2 -0
-10 -6 -9 -10 -7 -7 -7 -9 -12 -4 0 0 0 0 0 0 -3 -2 -2 -3 -5 -5 -4 -5 -6 -7 -4 -3 -0 -1 -0 -1 -2 -4 -3 -2 -0 1 2 2 -1 -1 -4 -4 1 2 -0
-6 -6 -8 -8 -6 -7 -7 -9 -11 -8 1 1 -0 0 1 1 -1 -5 -3 -4 -2 -3 -4 -6 -7 -5 -4 1 0 1 1 -1 -1 -0 -4 -3 -2 1 3 4 3 -3 -4 -4 -2 2 1
-7 -7 -7 -7 -6 -7 -9 -9 -8 -5 -2 -0 -0 -0 1 1 -1 -3 -3 -4 -5 -4 -2 -4 -5 -5 -4 1 1 1 1 -3 -0 -1 -0 1 1 3 3 3 1 -3 -4 -1 4 1 -0
-8 -8 -8 -7 -6 -7 -10 -10 -8 -4 -3 -0 -1 -0 0 0 -2 -1 0 -3 -5 -5 -2 -3 -0 1 1 2 1 0 1 0 -0 -2 -1 4 4 3 2 3 2 -0 -1 2 2 2 0
-7 -7 -7 -6 -8 -9 -8 -9 -7 -4 -1 -0 -1 -1 0 1 -1 -1 -2 -1 -1 -1 -2 -2 -0 1 1 1 1 1 2 1 1 2 -0 3 2 1 1 0 -0 -0 -0 1 1 -0 -1
Wind_Speed
23 22 22 21 20 20 21 20 19 19 19 19 19 19 19 20 19 18 18 18 20 23 27 25 25 22 20 9 8 12 14 15 8 11 11 9 11 11 6 10 19 5 7 16 6 3 3
25 23 27 25 24 24 24 24 23 24 24 24 23 22 22 21 22 20 20 20 22 25 23 24 24 21 15 6 2 11 15 12 5 10 10 9 4 6 8 10 7 13 12 17 17 18 7
26 24 25 29 28 28 30 28 28 28 27 27 27 25 24 23 22 23 22 23 24 22 24 22 21 20 19 21 10 11 12 14 11 10 10 8 8 5 9 6 11 12 7 10 15 19 8
27 28 26 27 26 27 25 31 31 31 29 31 30 29 25 21 19 20 23 23 24 24 24 21 19 18 14 10 13 15 15 14 10 13 9 9 11 12 6 7 6 4 4 3 9 14 20
17 18 21 25 28 31 30 16 7 6 10 20 11 12 14 16 19 21 23 26 27 24 21 19 15 7 16 5 10 4 7 10 10 14 8 9 10 8 7 2 4 3 5 7 12 13 7
17 14 13 11 12 13 16 12 12 11 11 7 14 15 14 12 17 23 25 24 23 25 21 13 12 8 14 15 6 10 6 7 7 7 9 10 6 3 4 2 5 6 4 4 4 8 7
17 20 20 22 24 30 27 27 22 13 12 10 15 14 16 16 13 19 19 19 11 6 7 10 5 11 10 4 11 13 5 6 6 11 5 15 3 7 11 10 9 9 3 4 7 5 3
12 11 12 12 12 12 11 14 14 15 14 9 13 11 18 18 17 18 15 12 4 12 14 21 26 28 29 21 12 14 10 6 11 8 9 6 11 11 10 11 6 5 5 6 7 10 8
15 14 14 13 11 9 10 10 11 18 17 14 18 20 21 18 15 19 18 19 5 18 8 18 31 25 33 23 26 27 16 15 9 8 8 9 9 10 12 5 6 6 4 4 6 9 8
18 17 15 15 14 12 10 11 9 12 14 16 21 24 23 16 12 8 9 4 6 12 4 7 7 6 21 21 7 25 28 21 8 11 9 9 11 12 7 3 4 4 7 7 7 7 4
20 19 18 17 16 14 13 13 14 10 12 12 15 15 15 15 5 6 7 8 7 2 4 2 5 3 6 10 1 4 7 24 11 9 5 7 7 8 4 2 4 3 5 5 4 7 7
18 19 18 16 16 16 15 12 13 13 11 13 13 13 14 12 13 2 2 9 3 3 8 5 6 5 5 13 8 4 4 9 6 8 10 7 13 4 3 5 1 5 4 6 5 2 6
17 16 18 18 17 16 14 14 13 14 14 14 16 12 12 17 12 7 6 6 3 5 7 5 5 7 9 9 7 5 6 4 5 3 6 5 12 15 11 6 2 2 1 3 3 1 6
20 18 17 17 17 19 16 14 14 14 13 13 15 14 14 21 13 11 11 1 7 8 18 13 1 9 9 7 7 8 6 6 9 7 2 3 6 7 10 13 8 6 6 4 5 3 7
20 20 20 18 16 16 19 16 16 14 13 12 12 12 19 21 16 13 13 4 6 7 6 8 9 6 7 10 5 8 5 5 5 7 7 1 3 6 7 4 7 3 4 5 4 4 2
20 21 20 19 19 17 18 19 19 18 15 15 12 14 21 17 19 17 4 9 6 7 4 6 5 5 8 10 5 4 0 4 4 3 5 3 2 4 4 4 4 6 4 2 2 3 4
14 16 19 20 20 18 16 19 18 22 20 17 12 7 8 21 19 18 7 7 10 11 3 4 6 5 4 6 8 6 7 3 1 5 5 4 2 5 6 2 4 3 3 5 4 5 4
17 16 15 14 16 18 19 17 21 23 22 21 17 4 15 27 9 8 10 5 12 12 5 0 3 3 4 3 3 2 6 4 4 4 2 3 1 3 7 8 9 6 7 2 4 6 4
16 17 19 19 19 18 19 20 19 23 26 26 8 14 20 30 5 7 11 12 14 9 4 4 3 2 5 6 3 4 4 9 6 2 2 3 3 3 7 5 7 4 5 7 6 2 9
17 17 19 20 19 20 18 21 23 28 22 27 8 3 8 23 19 10 8 14 15 12 6 6 2 5 4 3 5 3 4 3 4 6 7 5 1 5 6 4 7 9 16 13 5 3 2
20 20 19 21 21 20 17 20 25 34 31 32 16 5 8 6 12 11 10 9 14 11 9 2 2 6 5 3 4 7 7 8 3 12 8 6 6 5 14 11 11 17 19 19 16 16 10
23 23 22 23 23 22 19 20 26 33 43 34 12 7 12 1 18 14 12 11 13 14 9 5 5 6 6 5 8 4 3 2 2 1 4 5 4 6 16 12 15 21 19 16 17 19 19
26 26 25 24 24 24 20 20 24 28 36 16 25 21 9 10 9 9 12 7 8 2 7 10 11 8 9 8 2 5 4 3 3 2 3 2 2 1 15 5 10 13 6 10 16 14 11
29 28 27 26 27 25 22 21 24 26 51 37 33 16 4 4 6 11 11 16 11 4 8 17 25 6 6 6 3 4 6 9 11 10 12 4 0 2 8 4 11 7 8 10 13 13 5
28 26 28 27 27 26 24 21 26 29 43 33 31 17 4 3 8 11 13 10 14 19 12 12 3 4 4 6 3 3 3 3 9 19 17 13 5 2 3 5 15 15 18 8 3 5 10
27 26 27 28 26 26 24 23 27 30 42 41 47 27 7 3 6 15 14 16 6 8 9 10 11 1 2 4 3 3 3 3 4 4 15 14 11 7 3 4 4 4 1 9 2 5 4
27 26 27 27 27 26 23 24 26 25 30 36 46 38 12 6 15 17 7 12 20 7 3 5 11 9 10 3 2 3 4 5 4 4 3 7 9 12 7 5 7 5 3 7 3 4 7
25 27 27 28 29 28 28 27 28 28 31 44 42 35 22 5 11 0 2 15 12 14 4 6 4 1 3 4 4 4 4 4 5 12 8 6 5 4 3 5 8 3 5 2 3 10 14
27 27 27 28 28 30 30 28 31 33 28 43 33 41 20 14 3 3 6 8 7 4 7 7 6 4 8 3 4 3 3 3 4 3 1 3 6 4 8 6 5 5 4 6 8 11 6
Wind_Direction
256 255 255 255 259 260 263 263 263 266 268 274 277 279 284 291 293 299 303 308 313 319 323 330 332 333 337 318 279 308 307 307 316 335 321 328 341 11 3 316 325 341 344 329 324 247 295
253 255 257 255 259 259 259 263 262 262 264 265 267 273 278 285 287 294 296 301 310 315 320 325 326 325 327 284 171 315 319 320 327 294 313 327 324 338 297 294 342 334 339 319 312 305 228
262 265 257 255 254 260 253 256 263 267 264 267 266 266 272 279 284 288 289 300 306 311 314 320 319 321 305 276 240 235 281 282 294 283 295 304 310 321 328 307 329 315 315 301 280 265 241
263 262 262 262 251 248 246 256 253 258 269 270 269 257 262 268 271 276 290 297 303 306 305 311 307 309 275 285 260 267 257 268 268 282 282 299 301 291 243 252 310 276 285 268 266 245 238
254 247 247 248 247 246 231 219 239 250 244 251 269 243 266 276 281 290 296 301 304 300 300 299 302 324 279 303 274 279 248 255 252 253 268 283 304 268 291 216 327 242 244 245 283 261 130
238 233 209 223 223 226 250 284 328 313 315 261 298 308 293 285 295 296 296 299 299 298 290 282 269 293 267 252 279 221 225 247 259 258 272 250 243 252 312 108 231 253 282 320 295 337 87
249 252 258 271 271 269 273 282 287 303 289 303 320 305 295 281 282 290 296 305 320 316 318 228 248 235 277 272 272 272 253 241 241 250 242 256 176 221 237 235 248 258 297 319 296 329 286
243 253 261 271 284 299 294 275 261 270 281 285 306 304 285 283 286 283 288 280 215 320 293 269 269 258 257 270 283 253 248 211 232 236 248 269 253 244 254 283 317 338 327 307 298 323 319
235 239 244 251 263 289 300 287 285 261 252 257 262 267 280 282 290 289 288 274 311 308 282 284 264 243 246 249 249 254 254 219 253 278 260 234 256 268 244 259 295 307 280 295 294 325 330
241 244 243 245 251 261 272 276 271 263 260 252 242 241 256 277 288 307 303 105 270 302 305 267 225 233 232 226 276 250 243 246 222 230 264 264 248 271 299 292 358 320 328 360 15 8 284
239 241 245 248 249 254 262 268 262 257 258 250 246 244 248 249 218 183 356 201 205 265 306 260 102 211 181 163 193 198 213 230 238 253 230 250 323 323 301 265 330 279 13 15 1 321 318
242 241 241 243 246 249 255 255 252 255 263 248 238 249 235 214 201 180 15 206 179 54 241 214 141 191 167 206 265 147 203 226 261 240 277 254 265 267 235 306 134 10 16 351 305 247 273
241 240 239 241 240 246 249 253 254 254 255 249 243 244 230 190 200 205 192 179 82 208 265 192 171 170 195 197 233 180 171 210 178 141 238 263 251 254 234 258 240 89 9 326 322 188 240
242 241 239 237 241 241 241 245 252 251 246 246 240 234 224 200 197 177 179 135 207 215 242 285 221 171 196 191 226 189 191 205 235 244 263 238 319 223 219 205 187 201 181 180 239 225 289
241 240 239 240 240 238 231 234 243 244 237 235 236 240 221 205 196 187 175 201 221 208 306 328 251 173 219 222 131 190 221 235 238 191 199 208 264 13 82 97 122 191 245 215 269 283 320
243 243 242 243 241 243 246 240 230 234 233 224 235 222 228 202 194 192 206 230 218 285 360 322 274 185 210 224 140 104 26 300 260 290 86 1 346 334 319 156 225 180 218 342 339 295 267
244 245 244 244 245 243 239 235 244 231 223 218 209 228 242 189 183 185 201 232 230 268 39 335 335 343 284 270 172 175 190 286 83 349 56 48 93 304 2 262 208 274 238 235 216 164 228
248 253 252 249 247 244 240 235 232 234 221 205 198 225 191 176 167 202 224 213 233 259 163 321 296 294 288 289 348 330 189 165 69 92 73 25 304 255 258 293 307 295 278 279 131 289 232
263 262 259 258 258 256 246 235 235 233 217 201 217 216 185 179 191 214 238 226 241 267 243 194 232 103 342 322 24 360 338 319 34 64 78 15 333 359 318 296 279 287 320 347 339 327 274
265 266 266 261 259 260 250 237 229 225 223 202 230 200 182 202 227 205 206 240 216 230 240 289 261 334 288 316 335 286 336 345 101 117 110 80 194 187 210 251 324 297 294 301 283 245 261
264 266 267 257 256 259 253 237 227 226 215 191 217 224 180 201 217 233 257 216 226 211 194 122 315 234 250 247 261 262 252 273 284 158 163 147 211 255 265 281 286 278 279 291 289 278 266
266 265 260 257 252 256 258 235 225 229 216 187 175 244 178 263 202 208 236 240 211 233 155 214 193 255 230 236 255 277 311 295 249 24 195 184 210 235 263 270 269 270 267 273 265 270 271
258 258 257 252 250 252 254 236 225 212 198 196 210 229 255 225 194 195 221 224 237 261 33 236 220 220 247 266 120 47 34 339 288 336 339 294 127 300 270 278 308 278 225 247 266 263 267
266 261 252 246 245 246 244 236 231 227 213 208 203 211 211 262 173 202 216 221 256 271 189 248 245 178 143 121 20 352 296 283 263 243 239 237 300 211 282 360 271 257 209 257 257 257 234
264 253 245 242 240 240 240 233 230 222 214 222 194 210 236 279 216 195 212 221 227 247 238 249 216 242 200 87 52 340 323 292 245 237 227 208 185 237 245 222 275 303 285 281 281 281 289
255 247 237 235 233 236 237 230 235 225 222 228 210 204 256 273 253 231 210 209 218 208 202 206 231 84 100 83 93 181 227 244 263 227 216 203 203 198 187 248 269 244 307 217 133 306 62
248 242 238 235 235 237 241 227 236 232 220 222 209 205 228 243 257 248 212 217 220 195 172 182 213 241 186 125 147 193 238 262 246 239 184 183 197 215 211 249 267 258 300 100 103 257 350
243 236 234 233 235 238 245 231 234 222 224 216 201 195 225 245 266 10 229 208 216 219 151 165 114 359 62 157 187 211 237 251 243 241 247 174 191 179 187 222 266 308 147 158 193 2 274
237 237 234 234 241 241 237 238 234 215 216 209 204 206 227 236 272 308 219 166 154 152 180 167 146 131 169 175 202 253 256 295 283 274 32 138 185 193 179 212 239 258 246 180 219 235 223
Height
1535 1537 1540 1541 1543 1546 1547 1549 1549 1550 1552 1552 1553 1552 1551 1551 1550 1549 1548 1546 1544 1542 1541 1537 1534 1529 1526 1525 1521 1520 1519 1518 1517 1517 1515 1512 1511 1509 1513 1509 1505 1503 1503 1501 1500 1498 1501
1530 1532 1535 1537 1539 1542 1544 1545 1546 1547 1548 1548 1549 1550 1548 1548 1547 1547 1546 1544 1542 1541 1538 1536 1532 1529 1527 1525 1519 1519 1517 1517 1516 1517 1515 1514 1511 1509 1510 1511 1509 1505 1503 1502 1500 1499 1499
1525 1527 1530 1531 1533 1536 1538 1539 1541 1542 1544 1545 1545 1546 1545 1545 1544 1544 1544 1542 1540 1538 1536 1535 1531 1528 1524 1517 1516 1515 1515 1516 1516 1516 1514 1513 1513 1511 1508 1507 1505 1505 1506 1502 1497 1497 1497
1519 1522 1525 1526 1528 1530 1531 1534 1535 1535 1538 1539 1537 1539 1542 1542 1541 1541 1540 1539 1537 1535 1533 1531 1529 1527 1518 1514 1513 1512 1512 1512 1514 1514 1514 1513 1512 1511 1508 1505 1503 1505 1505 1512 1490 1489 1489
1513 1515 1517 1520 1522 1523 1524 1526 1527 1529 1531 1532 1537 1536 1537 1537 1539 1538 1537 1536 1535 1531 1529 1528 1527 1526 1514 1511 1509 1509 1509 1510 1511 1511 1511 1512 1512 1511 1508 1508 1513 1503 1516 1507 1495 1481 1485
1511 1511 1512 1515 1517 1520 1520 1521 1524 1527 1530 1527 1533 1533 1534 1535 1535 1535 1534 1532 1531 1526 1525 1524 1522 1528 1514 1509 1509 1508 1508 1508 1509 1510 1510 1510 1510 1511 1509 1514 1526 1508 1505 1501 1502 1488 1487
1505 1507 1508 1511 1513 1512 1515 1516 1515 1523 1528 1526 1529 1530 1531 1532 1531 1533 1533 1532 1531 1525 1521 1518 1515 1511 1510 1511 1509 1508 1508 1508 1507 1508 1509 1507 1512 1515 1507 1502 1499 1496 1495 1498 1493 1490 1489
1502 1503 1505 1507 1508 1510 1510 1511 1514 1516 1524 1522 1528 1528 1528 1530 1531 1532 1532 1533 1531 1532 1520 1514 1511 1509 1505 1508 1508 1506 1508 1508 1506 1508 1504 1508 1508 1498 1494 1493 1493 1494 1497 1500 1491 1484 1488
1498 1499 1502 1504 1506 1507 1507 1508 1510 1512 1515 1518 1523 1526 1526 1527 1529 1530 1531 1529 1530 1529 1525 1507 1499 1497 1500 1505 1502 1500 1505 1503 1504 1506 1504 1505 1498 1492 1491 1493 1495 1496 1497 1497 1499 1490 1487
1494 1496 1498 1500 1503 1504 1506 1507 1505 1507 1510 1515 1517 1519 1523 1527 1529 1529 1527 1526 1528 1530 1532 1503 1491 1487 1491 1498 1496 1495 1498 1503 1501 1502 1502 1499 1491 1490 1492 1492 1493 1503 1493 1494 1497 1503 1513
1490 1492 1494 1496 1499 1501 1502 1502 1504 1505 1508 1511 1513 1515 1518 1522 1526 1527 1530 1528 1523 1530 1546 1488 1490 1489 1488 1492 1493 1492 1493 1496 1496 1497 1498 1500 1493 1495 1493 1492 1490 1498 1494 1497 1499 1507 1505
1486 1488 1490 1492 1495 1498 1499 1500 1502 1503 1507 1508 1510 1513 1514 1519 1521 1526 1526 1526 1526 1537 1528 1487 1487 1490 1491 1492 1491 1491 1492 1493 1492 1495 1494 1493 1491 1490 1489 1489 1489 1492 1496 1499 1500 1506 1521
1481 1484 1486 1488 1491 1494 1495 1498 1499 1502 1503 1506 1509 1511 1513 1515 1518 1523 1525 1529 1533 1536 1491 1481 1484 1484 1489 1490 1490 1488 1491 1495 1496 1504 1503 1491 1489 1484 1485 1491 1489 1492 1504 1525 1525 1523 1517
1477 1479 1482 1483 1486 1490 1491 1494 1497 1499 1501 1503 1505 1508 1511 1513 1516 1520 1524 1532 1526 1498 1496 1476 1479 1480 1488 1484 1485 1486 1489 1497 1491 1490 1494 1497 1504 1480 1477 1484 1492 1495 1503 1522 1519 1520 1513
1471 1474 1476 1479 1482 1485 1487 1491 1495 1497 1499 1503 1504 1505 1506 1511 1516 1520 1523 1527 1513 1495 1488 1486 1474 1483 1486 1480 1482 1482 1487 1489 1485 1486 1496 1491 1489 1479 1475 1478 1484 1493 1502 1494 1505 1503 1517
1466 1469 1471 1474 1477 1480 1483 1486 1490 1494 1497 1501 1503 1503 1503 1508 1514 1518 1520 1506 1499 1491 1487 1487 1484 1476 1484 1479 1481 1483 1486 1482 1483 1480 1480 1483 1496 1481 1480 1480 1482 1487 1487 1505 1506 1515 1515
1462 1464 1466 1469 1472 1475 1478 1482 1485 1490 1494 1498 1502 1503 1499 1505 1510 1514 1511 1504 1494 1489 1489 1491 1487 1483 1478 1479 1477 1484 1485 1482 1482 1482 1481 1484 1491 1494 1486 1486 1489 1489 1492 1492 1494 1506 1509
1458 1460 1462 1465 1466 1470 1473 1478 1481 1486 1491 1494 1498 1499 1494 1499 1505 1505 1500 1493 1493 1486 1489 1490 1489 1486 1486 1479 1481 1480 1483 1481 1482 1483 1488 1486 1491 1499 1491 1482 1481 1485 1486 1487 1511 1501 1505
1453 1455 1457 1459 1462 1465 1468 1473 1477 1481 1486 1491 1495 1493 1493 1495 1498 1496 1493 1491 1490 1487 1486 1487 1487 1487 1488 1487 1487 1483 1483 1480 1484 1485 1488 1490 1497 1515 1497 1487 1481 1485 1480 1484 1487 1489 1492
1448 1451 1452 1453 1457 1460 1463 1467 1471 1476 1480 1487 1494 1487 1488 1489 1484 1488 1489 1488 1487 1484 1484 1486 1485 1485 1490 1487 1485 1487 1485 1483 1484 1487 1489 1490 1496 1502 1516 1499 1494 1494 1485 1483 1489 1507 1502
1443 1445 1448 1450 1451 1454 1458 1461 1466 1471 1476 1481 1488 1479 1478 1482 1483 1483 1487 1480 1481 1481 1482 1484 1484 1487 1488 1489 1489 1487 1487 1487 1485 1486 1487 1491 1500 1496 1490 1492 1493 1489 1485 1481 1483 1481 1490
1438 1440 1442 1444 1446 1449 1452 1455 1460 1463 1467 1472 1475 1478 1474 1475 1477 1482 1481 1475 1474 1476 1479 1482 1484 1483 1485 1492 1488 1487 1486 1485 1487 1485 1486 1488 1496 1493 1488 1490 1488 1482 1478 1477 1472 1470 1470
1431 1433 1435 1437 1439 1443 1447 1450 1454 1458 1461 1458 1468 1472 1474 1471 1473 1477 1473 1474 1472 1473 1480 1479 1481 1482 1485 1485 1484 1486 1486 1487 1488 1489 1489 1490 1492 1496 1483 1487 1487 1482 1477 1472 1465 1462 1465
1421 1424 1427 1430 1434 1437 1441 1445 1448 1451 1451 1456 1461 1470 1474 1469 1467 1469 1469 1472 1470 1472 1477 1477 1478 1477 1480 1481 1483 1484 1485 1485 1485 1486 1487 1489 1493 1498 1491 1495 1499 1472 1461 1461 1460 1456 1456
1413 1416 1419 1423 1427 1430 1434 1439 1442 1446 1448 1452 1459 1464 1467 1464 1462 1465 1467 1467 1469 1470 1473 1473 1474 1476 1476 1481 1488 1488 1490 1485 1478 1474 1475 1480 1490 1500 1495 1496 1473 1470 1458 1458 1458 1458 1450
1405 1409 1412 1416 1420 1424 1428 1433 1436 1440 1444 1448 1455 1461 1463 1467 1461 1460 1461 1462 1464 1465 1470 1469 1473 1474 1478 1485 1492 1494 1491 1478 1471 1463 1461 1473 1479 1490 1493 1486 1479 1457 1449 1449 1451 1464 1448
1398 1401 1405 1409 1414 1418 1422 1427 1430 1434 1438 1443 1448 1456 1462 1462 1457 1456 1457 1459 1460 1461 1464 1466 1470 1474 1477 1487 1493 1492 1489 1476 1474 1466 1464 1471 1476 1480 1483 1484 1473 1453 1450 1450 1463 1464 1449
1391 1394 1398 1403 1407 1411 1415 1420 1424 1429 1434 1438 1443 1452 1458 1457 1455 1455 1456 1457 1457 1458 1463 1464 1471 1475 1479 1485 1487 1485 1480 1469 1463 1458 1460 1468 1472 1478 1481 1483 1473 1450 1448 1454 1457 1452 1453
1384 1387 1391 1396 1400 1404 1408 1413 1417 1423 1429 1435 1443 1449 1454 1455 1455 1453 1455 1458 1458 1458 1460 1462 1466 1468 1473 1478 1479 1475 1473 1465 1459 1465 1447 1464 1458 1464 1463 1462 1448 1446 1446 1445 1448 1448 1448